Regional Weather Roundup
Issued by NWS

Home | Current Version | Previous Version | Graphics & Text | Print | Product List | Glossary On
Versions: 1 2 3 4 5 6 7 8 9 10 11 12 13 14 15 16 17 18 19 20 21 22 23 24 25 26 27 28 29 30 31 32 33 34 35 36 37 38 39 40 41 42 43 44 45 46 47 48 49 50
000
ASUS43 KIND 251809
RWRIN

WEATHER ROUNDUP FOR INDIANA
NATIONAL WEATHER SERVICE INDIANAPOLIS IN
200 PM EDT WED APR 25 2018

NOTE: "FAIR" INDICATES FEW OR NO CLOUDS BELOW 12,000 FEET WITH NO
SIGNIFICANT WEATHER AND/OR OBSTRUCTIONS TO VISIBILITY.

* - STATION DOES NOT REPORT WEATHER SUCH AS PRECIPITATION OR FOG.

+ - STATION NOT QUALITY CONTROLLED BY THE NATIONAL WEATHER SERVICE.
    USE DATA WITH CAUTION...ESPECIALLY DEWPOINT AND RELATIVE
    HUMIDITY OBSERVATIONS.

INZ001>003-010>013-019-020-251900-
NORTHWEST INDIANA

CITY           SKY/WX    TMP DP  RH WIND       PRES   REMARKS
GARY /AIRPORT/ MOSUNNY   46  34  61 N17       30.12S
KNOX *+        FAIR      54  34  47 N20G26    30.05S
LA PORTE +     FAIR      49  35  56 N15G22    30.08S
6HR MIN TEMP:  42; 6HR MAX TEMP:  50;

MICHIGAN CITY+ FAIR      43  36  75 N16G23    30.10R
MONTICELLO +   FAIR      62  34  35 N16G24    30.01F
6HR MIN TEMP:  43; 6HR MAX TEMP:  62;

RENSSELAER +   FAIR      55  23  28 N15G26    30.06S
VALPARAISO     FAIR      52  34  50 N16G22    30.08F
6HR MIN TEMP:  44; 6HR MAX TEMP:  52;


$$

LMZ046-743>745-251900-
SOUTHERN LAKE MICHIGAN

STATION/POSITION TIME  TEMP    WIND        PRES    WAVE
                       AIR SEA DIR/SP/G            HT
                 (UTC) (F)     (DEG/KT/KT) (MB)    (FT)
BURNS HARBOR     1740   39     340/ 17/ 19 1020.0S
MICHIGAN CITY    1740   40     330/ 22/ 24   N/A

$$

INZ004-005-014>016-021>024-251900-
NORTH CENTRAL INDIANA

CITY           SKY/WX    TMP DP  RH WIND       PRES   REMARKS
ELKHART        FAIR      57  32  38 NW12G17   30.00S
GOSHEN         FAIR      60  38  43 NW17G24   29.98F
6HR MIN TEMP:  50; 6HR MAX TEMP:  60;

LOGANSPORT +   FAIR      61  36  39 N8G21     30.01F
PERU/GRISSOM   FAIR      63  41  45 N10G18    29.98S
6HR MIN TEMP:  49; 6HR MAX TEMP:  63;

ROCHESTER +    FAIR      63  37  39 NW16G24   30.01S
SOUTH BEND     FAIR      53  32  44 N17G26    30.04S
6HR MIN TEMP:  45; 6HR MAX TEMP:  55;

WARSAW +       FAIR      61  36  39 NW14G21   29.99S

$$

INZ006>009-017-018-025>027-251900-
NORTHEAST INDIANA

CITY           SKY/WX    TMP DP  RH WIND       PRES   REMARKS
ANGOLA *+      FAIR      59  36  41 N13G21    29.95F
AUBURN +       FAIR      61  37  41 NW13G18   29.96F
FORT WAYNE     FAIR      62  42  47 N12       29.96F
6HR MIN TEMP:  53; 6HR MAX TEMP:  63;

HUNTINGTON +   FAIR      60  40  47 N14       29.97S
6HR MIN TEMP:  51; 6HR MAX TEMP:  62;

KENDALLVILLE + FAIR      60  31  33 N12G17    29.96F

$$

INZ028-029-035-036-043>045-051>053-251900-
WEST CENTRAL INDIANA

CITY           SKY/WX    TMP DP  RH WIND       PRES   REMARKS
CRAWFORDSVL +  FAIR      60  44  56 N10G18    30.00F
6HR MIN TEMP:  44; 6HR MAX TEMP:  60;

GREENCASTLE +  CLOUDY    55  48  76 N6        30.03F
LAFAYETTE      FAIR      62  41  46 NW13G18   30.01F
6HR MIN TEMP:  44; 6HR MAX TEMP:  62;

TERRE HAUTE    FAIR      60  51  72 NE5       30.02F
6HR MIN TEMP:  49; 6HR MAX TEMP:  61;


$$

INZ030>032-037>040-046>048-054>057-064-065-251900-
CENTRAL INDIANA

CITY           SKY/WX    TMP DP  RH WIND       PRES   REMARKS
COLUMBUS       PTSUNNY   63  46  55 N14       29.99F
FRANKFORT +    FAIR      64  44  48 N12       30.02F
6HR MIN TEMP:  48; 6HR MAX TEMP:  64;

GREENWOOD *+   CLOUDY    58  50  72 N16       30.00S
6HR MIN TEMP:  51; 6HR MAX TEMP:  61;

INDIANAPOLIS   PTSUNNY   56  49  77 NW12      30.01F
6HR MIN TEMP:  50; 6HR MAX TEMP:  59;

-EAGLE CREEK   CLOUDY    57  48  72 N7        30.00F
6HR MIN TEMP:  50; 6HR MAX TEMP:  57;

KOKOMO +       FAIR      61  43  51 N8G18     30.00F
6HR MIN TEMP:  50; 6HR MAX TEMP:  63;

MARION +       PTSUNNY   60  45  57 N7        29.98F
MT COMFORT *+  PTSUNNY   57  54  88 NW13      30.00F
SHELBYVILLE    PTSUNNY   62  51  67 N15       29.96F
6HR MIN TEMP:  54; 6HR MAX TEMP:  63;

ZIONSVILLE +   PTSUNNY   57  49  75 NW10      30.01F
6HR MIN TEMP:  47; 6HR MAX TEMP:  57;


$$

INZ033-034-041-042-049-050-058-059-251900-
EAST CENTRAL INDIANA

CITY           SKY/WX    TMP DP  RH WIND       PRES   REMARKS
MUNCIE         FAIR      64  47  53 N12       29.96F
6HR MIN TEMP:  53; 6HR MAX TEMP:  64;

RICHMOND +     PTSUNNY   59  50  72 N12       29.95F

$$

INZ060-061-067>069-081>083-085>088-251900-
SOUTHWEST INDIANA

CITY           SKY/WX    TMP DP  RH WIND       PRES   REMARKS
EVANSVILLE     PTSUNNY   67  54  63 N9        30.00F
6HR MIN TEMP:  49; 6HR MAX TEMP:  67;

HUNTINGBURG +  PTSUNNY   65  53  65 NW9       29.99F
6HR MIN TEMP:  50; 6HR MAX TEMP:  66;

WASHINGTON +   PTSUNNY   64  49  60 N8        30.00S
6HR MIN TEMP:  49; 6HR MAX TEMP:  64;


$$

INZ062-063-066-070>080-084-089>092-251900-
SOUTH CENTRAL AND SOUTHEAST INDIANA

CITY           SKY/WX    TMP DP  RH WIND       PRES   REMARKS
BATESVILLE +   CLOUDY    61  48  63 MISG      29.95F
BEDFORD +      PTSUNNY   63  48  59 NW7       29.98F
BLOOMINGTON    PTSUNNY   63  51  65 N12G18    29.99F
6HR MIN TEMP:  50; 6HR MAX TEMP:  63;

FRENCH LICK *+ FAIR      63  43  48 CALM      29.99S
MADISON *+     PTSUNNY   63  46  55 N10G17    29.97F
NORTH VERNON + CLOUDY    59  50  72 N7        29.97F
SEYMOUR +      PTSUNNY   64  50  59 N12       29.97F

$$





USA.gov is the U.S. government's official web portal to all federal, state and local government web resources and services.